Flag for Germany Weather past 2 weeks in Dormagen, North Rhine-Westphalia, Germany

50 °F


Feels Like: 46 °F
Forecast: 38 / 55 °F
Wind: 9 mph from Northeast

Location: Duesseldorf

Current Time: Oct 10, 2015 at 10:00:16 PM

Latest Report: Oct 10, 2015 at 9:20 PM

Visibility: 10 mi

Pressure: 30.07 "Hg

Humidity: 76%

Dew point: 43 °F

Location of DormagenLocation

Historic Weather in Dormagen — Graph


Dormagen temperature yesterday

Maximum temperature yesterday: 59 °F (at 1:20 PM)
Minimum temperature yesterday: 52 °F (at 5:20 AM)
Average temperature yesterday: 55 °F

Past Weeks' High & Low Weather Summary

High68 °F (Oct 3, 3:20 PM)100% (Sep 26, 8:50 AM)30.63 "Hg (Sep 26, 8:50 AM)
Low37 °F (Oct 2, 5:20 AM)43% (Sep 30, 3:20 PM)29.56 "Hg (Oct 6, 5:20 AM)
Average55 °F80%30.19 "Hg
* Reported Sep 25 8:20 PM — Oct 10 8:50 PM, Dormagen, Weather by CustomWeather, © 2015

Note: Actual official high and low records may vary slightly from our data, if they occured in-between our weather recording intervals... More about our weather records


Dormagen weather history for previous 24 hours

Time TempWeatherWind HumidityBarometerVisibility
8:50 PM
Sat, Oct 10
50 °FClear.9 mph76%30.07 "Hg10 mi
8:20 PM50 °FClear.8 mph76%30.07 "Hg10 mi
7:50 PM50 °FSunny.7 mph82%30.07 "Hg10 mi
7:20 PM52 °FSunny.10 mph72%30.07 "Hg10 mi
6:50 PM54 °FSunny.9 mph72%30.07 "Hg10 mi
6:20 PM55 °FPassing clouds.10 mph67%30.07 "HgN/A
5:50 PM55 °FPassing clouds.9 mph67%30.07 "HgN/A
5:20 PM55 °FPassing clouds.13 mph67%30.07 "HgN/A
4:50 PM57 °FPassing clouds.12 mph72%30.07 "HgN/A
4:20 PM57 °FPassing clouds.13 mph63%30.07 "HgN/A
3:50 PM57 °FPassing clouds.9 mph63%30.07 "HgN/A
3:20 PM57 °FPassing clouds.9 mph72%30.09 "Hg6 mi
2:50 PM55 °FScattered clouds.9 mph77%30.09 "HgN/A
2:20 PM54 °FPartly sunny.9 mph82%30.09 "HgN/A
1:50 PM54 °FPartly sunny.9 mph82%30.09 "HgN/A
1:20 PM54 °FPartly sunny.9 mph82%30.12 "HgN/A
12:50 PM54 °FBroken clouds.10 mph82%30.12 "HgN/A
12:20 PM52 °FPartly sunny.9 mph82%30.12 "HgN/A
11:50 AM52 °FPartly sunny.9 mph88%30.12 "HgN/A
11:20 AM52 °FPartly sunny.8 mph88%30.12 "HgN/A
10:50 AM52 °FOvercast.10 mph88%30.12 "HgN/A
10:20 AM52 °FOvercast.9 mph88%30.15 "HgN/A
9:50 AM52 °FOvercast.14 mph88%30.15 "Hg6 mi
9:20 AM54 °FOvercast.10 mph88%30.12 "Hg6 mi
8:50 AM54 °FLow clouds.14 mph82%30.12 "HgN/A
8:20 AM54 °FLow clouds.8 mph88%30.12 "HgN/A
7:50 AM54 °FMostly cloudy.8 mph88%30.12 "HgN/A
7:20 AM54 °FLow clouds.13 mph88%30.12 "HgN/A
6:50 AM54 °FLow clouds.9 mph88%30.12 "HgN/A
6:20 AM54 °FLow clouds.12 mph88%30.12 "HgN/A
5:50 AM54 °FLow clouds.10 mph94%30.12 "HgN/A
5:20 AM54 °FPassing clouds.9 mph88%30.12 "HgN/A
4:50 AM54 °FOvercast.7 mph94%30.12 "HgN/A
4:20 AM54 °FPassing clouds.8 mph94%30.15 "HgN/A
3:50 AM54 °FPassing clouds.9 mph94%30.15 "HgN/A
3:20 AM54 °FPassing clouds.8 mph94%30.15 "HgN/A
2:50 AM54 °FPartly cloudy.7 mph94%30.15 "HgN/A
2:20 AM54 °FPartly cloudy.9 mph94%30.15 "HgN/A
1:50 AM54 °FPassing clouds.8 mph94%30.15 "HgN/A
1:20 AM55 °FPassing clouds.9 mph88%30.15 "HgN/A
12:50 AM55 °FPartly cloudy.6 mph94%30.15 "HgN/A
12:20 AM55 °FPartly cloudy.7 mph94%30.15 "HgN/A
11:20 PM
Fri, Oct 9
55 °FPassing clouds.7 mph94%30.15 "HgN/A
10:50 PM55 °FLight rain. Passing clouds.7 mph94%30.15 "HgN/A
10:20 PM55 °FLight rain. Passing clouds.6 mph94%30.15 "HgN/A
Weather by CustomWeather, © 2015

See weather overviewHow to use our weather pages